Terminal Aerodrome Forecast
Issued by NWS

Home | Current Version | Previous Version | Text Only | Print | Product List | Glossary On
Versions: 1 2 3 4 5 6 7 8 9 10 11 12 13
000
FTUS42 TJSJ 240540
TAFJPS
TAF
TJPS 240540Z 2406/2506 05004KT P6SM FEW030
     FM241500 16012KT P6SM FEW030 SCT060
     FM241800 15010KT P6SM VCTS SCT030CB SCT060
     FM242100 13008KT P6SM VCSH SCT030 SCT060
      AMD NOT SKED 2411/2503=

USA.gov is the U.S. government's official web portal to all federal, state and local government web resources and services.